Погода в Тимошкином

Россия / Оренбургская область     53°23′04″N   53°26′30″E
темп.,
°C
ветер,
м/с
пор.,
м/с
влажн.,
%
обл.,
%
осадки,
мм/ч
давл.,
гПа
погр.,
м
31 июля, сб
сб3123:00+20ссв226623 0.0 100811
02:00+19юв2271100 0.0 100817
05:00+19ююв3371100 0.0 100840
08:00+21ю366875 0.3 1008187
11:00+29юз57445 0.3 1007975
14:00+33зюз10132899 0.0 10063592
17:00+27юз91147100 0.0 10071574
20:00+25з495837 0.1 1007331
1 августа, вс
вс123:00+21зюз41078100 0.3 1009190
02:00+19з128599 0.4 101011
05:00+19зюз22860 0.4 101111
08:00+21з35780 0.0 1013213
11:00+27зсз564112 0.0 10131578
14:00+30зсз57286 0.0 10132813
17:00+31зсз682672 0.0 10123105
20:00+28ссз353482 0.0 1012117
2 августа, пн
пн223:00+22ссв33485 0.0 101419
02:00+20ссв22527 0.0 101511
05:00+19ссз00566 0.0 101511
08:00+24ссз114537 0.0 101690
11:00+29зюз12349 0.0 10161115
14:00+32з352620 0.0 10142875
17:00+33зсз45235 0.0 10133114
20:00+31ююв22313 0.0 101315
3 августа, вт
вт323:00+24ссв113797 0.0 101311
02:00+24юв323820 0.0 101314
05:00+22юв22435 0.0 101313
08:00+26ююв233986 0.0 1013113
11:00+33ю562614 0.0 1012870
14:00+37юз57165 0.0 10114021
17:00+37з571418 0.0 10093770
20:00+30сз7122699 0.1 1010252
4 августа, ср
ср423:00+26в463479 0.1 101176
02:00+23юв344125 0.0 101150
05:00+23вюв22394 0.0 101111
08:00+26ю373229 0.0 1011209
11:00+34ю572165 0.0 1010804
14:00+38ююв671575 0.0 10083939
17:00+28ссз81333100 0.0 1008412
20:00+30юв4628100 0.0 1008153